Back to catalog

COSMOS 2251 DEB

AliveLEO
NORAD 35975·DEBRIS·🇷🇺 Russia

Launched Jun 16, 1993 from Plesetsk Cosmodrome

Loading…

Next Passes (next 24 hours)

TLE

StaleSource: Space-Track

Epoch: Sep 7, 2026, 13:07 UTC

1 35975U 93036AVR 26250.54720127  .00001621  00000-0  61600-3 0  9999
2 35975  74.0486 203.0860 0112993 218.7913 140.5087 14.28346993679382

Track COSMOS 2251 DEB in real time with AllMySat

Download on the App Store